UAL838 RJAA-KSFO

Flight info

Callsign UAL838
Flight time N/A
Altitude 33000
Route GULBO Y808 NOLAX Y812 ADNAP OTR7 EMRON 41N160E 43N170E 43N180E/N0477F350 42N170W 41N160W 40N150W 39N140W/N0476F370 39N130W DCT DACEM DCT PAINT DCT PIRAT DCT OSI
Aircraft B77W/H-SDE1E2E3FGHIJ2J3J4J5M1RWXY/LB1D1

Departure

Time 2026-05-08 04:58
Airport Narita International Airport (RJAA)

Arrival

Time N/A
Airport San Francisco International Airport (KSFO)
Time Latitude Longitude Altitude Speed Heading
2026-05-08 04:08 35.75991 140.38498 151 ft 0 kts 61°
2026-05-08 04:42 35.75988 140.38491 151 ft 4 kts 61°
2026-05-08 04:42 35.75975 140.38464 151 ft 3 kts 61°
2026-05-08 04:43 35.75966 140.38440 151 ft 4 kts 74°
2026-05-08 04:43 35.75964 140.38411 151 ft 4 kts 111°
2026-05-08 04:43 35.75978 140.38387 151 ft 4 kts 146°
2026-05-08 04:43 35.75984 140.38382 151 ft 0 kts 150°
2026-05-08 04:49 35.75982 140.38383 151 ft 2 kts 150°
2026-05-08 04:49 35.75947 140.38407 151 ft 10 kts 150°
2026-05-08 04:50 35.75885 140.38452 151 ft 10 kts 150°
2026-05-08 04:50 35.75821 140.38493 151 ft 10 kts 163°
2026-05-08 04:50 35.75780 140.38442 151 ft 10 kts 285°
2026-05-08 04:50 35.75831 140.38379 151 ft 11 kts 323°
2026-05-08 04:51 35.75895 140.38332 151 ft 11 kts 329°
2026-05-08 04:51 35.75958 140.38284 150 ft 11 kts 328°
2026-05-08 04:51 35.76027 140.38231 150 ft 13 kts 329°
2026-05-08 04:51 35.76109 140.38176 150 ft 14 kts 330°
2026-05-08 04:52 35.76191 140.38118 150 ft 14 kts 329°
2026-05-08 04:52 35.76271 140.38057 150 ft 14 kts 329°
2026-05-08 04:52 35.76352 140.37999 150 ft 14 kts 330°
2026-05-08 04:52 35.76395 140.37904 149 ft 14 kts 272°
2026-05-08 04:53 35.76442 140.37810 148 ft 14 kts 326°
2026-05-08 04:53 35.76523 140.37748 149 ft 14 kts 329°
2026-05-08 04:53 35.76604 140.37690 148 ft 14 kts 330°
2026-05-08 04:53 35.76686 140.37631 148 ft 14 kts 329°
2026-05-08 04:54 35.76767 140.37571 148 ft 14 kts 329°
2026-05-08 04:54 35.76849 140.37511 148 ft 14 kts 330°
2026-05-08 04:54 35.76931 140.37453 148 ft 14 kts 329°
2026-05-08 04:54 35.76985 140.37414 148 ft 14 kts 329°
2026-05-08 04:55 35.77067 140.37355 148 ft 14 kts 329°
2026-05-08 04:55 35.77149 140.37296 147 ft 14 kts 330°
2026-05-08 04:55 35.77230 140.37236 147 ft 14 kts 328°
2026-05-08 04:55 35.77308 140.37170 147 ft 14 kts 314°
2026-05-08 04:56 35.77328 140.37107 146 ft 0 kts 272°
2026-05-08 04:56 35.77321 140.37070 144 ft 11 kts 245°
2026-05-08 04:57 35.77218 140.37016 139 ft 19 kts 180°
2026-05-08 04:57 35.77146 140.37050 139 ft 0 kts 149°
2026-05-08 04:57 35.77057 140.37112 139 ft 40 kts 150°
2026-05-08 04:57 35.76617 140.37428 144 ft 105 kts 149°
2026-05-08 04:58 35.75819 140.38005 147 ft 159 kts 149°
2026-05-08 04:58 35.74757 140.38742 324 ft 177 kts 154°
2026-05-08 04:58 35.73715 140.39496 821 ft 174 kts 158°
2026-05-08 04:58 35.72631 140.40158 1136 ft 183 kts 154°
2026-05-08 04:59 35.71471 140.40811 1412 ft 184 kts 153°
2026-05-08 04:59 35.70311 140.41473 1719 ft 189 kts 154°
2026-05-08 04:59 35.69362 140.42707 1772 ft 218 kts 116°
2026-05-08 04:59 35.68929 140.44548 2002 ft 226 kts 110°
2026-05-08 05:00 35.68555 140.46460 2211 ft 236 kts 108°
2026-05-08 05:00 35.68188 140.48506 2440 ft 251 kts 107°
2026-05-08 05:00 35.67801 140.50666 2868 ft 266 kts 107°
2026-05-08 05:01 35.66981 140.55472 4249 ft 273 kts 108°
2026-05-08 05:01 35.66517 140.57768 4938 ft 282 kts 108°
2026-05-08 05:01 35.66078 140.60152 5817 ft 288 kts 104°
2026-05-08 05:01 35.65778 140.62637 6536 ft 299 kts 105°
2026-05-08 05:02 35.65355 140.65128 7127 ft 297 kts 108°
2026-05-08 05:02 35.64880 140.67609 7603 ft 299 kts 109°
2026-05-08 05:02 35.64378 140.70105 8104 ft 301 kts 109°
2026-05-08 05:02 35.63879 140.72599 8678 ft 303 kts 109°
2026-05-08 05:03 35.63371 140.75158 9044 ft 312 kts 109°
2026-05-08 05:03 35.62863 140.77771 9548 ft 317 kts 109°
2026-05-08 05:03 35.62355 140.80422 10068 ft 320 kts 109°
2026-05-08 05:03 35.61837 140.83133 10374 ft 334 kts 109°
2026-05-08 05:04 35.61290 140.85997 10526 ft 354 kts 108°
2026-05-08 05:04 35.60712 140.89027 10697 ft 374 kts 108°
2026-05-08 05:04 35.60114 140.92182 10865 ft 394 kts 108°
2026-05-08 05:04 35.59486 140.95517 11266 ft 406 kts 108°
2026-05-08 05:05 35.58851 140.98942 11806 ft 415 kts 108°
2026-05-08 05:05 35.58211 141.02416 12524 ft 419 kts 108°
2026-05-08 05:05 35.57562 141.05918 13205 ft 424 kts 108°
2026-05-08 05:05 35.56896 141.09473 13799 ft 430 kts 108°
2026-05-08 05:06 35.56216 141.13070 14427 ft 434 kts 108°
2026-05-08 05:06 35.55529 141.16689 15088 ft 437 kts 109°
2026-05-08 05:06 35.54832 141.20343 15751 ft 441 kts 109°
2026-05-08 05:06 35.54127 141.24032 16386 ft 445 kts 109°
2026-05-08 05:07 35.53413 141.27756 17022 ft 450 kts 110°
2026-05-08 05:07 35.52691 141.31512 17631 ft 454 kts 110°
2026-05-08 05:07 35.51961 141.35305 18227 ft 459 kts 110°
2026-05-08 05:07 35.51219 141.39149 18628 ft 466 kts 109°
2026-05-08 05:08 35.50465 141.43055 19066 ft 473 kts 109°
2026-05-08 05:08 35.49704 141.46998 19589 ft 476 kts 109°
2026-05-08 05:08 35.48938 141.50964 20124 ft 480 kts 109°
2026-05-08 05:08 35.48163 141.54966 20626 ft 484 kts 109°
2026-05-08 05:09 35.47378 141.59010 21109 ft 489 kts 109°
2026-05-08 05:09 35.46586 141.63081 21567 ft 494 kts 109°
2026-05-08 05:09 35.45795 141.67141 22028 ft 498 kts 109°
2026-05-08 05:09 35.44988 141.71285 22488 ft 502 kts 108°
2026-05-08 05:10 35.44354 141.75518 22925 ft 509 kts 102°
2026-05-08 05:10 35.44028 141.84293 23743 ft 520 kts 93°
2026-05-08 05:10 35.44039 141.88752 24108 ft 524 kts 93°
2026-05-08 05:11 35.44046 141.93226 24507 ft 526 kts 94°
2026-05-08 05:11 35.44040 141.97729 24916 ft 527 kts 94°
2026-05-08 05:11 35.44019 142.02229 25306 ft 530 kts 94°
2026-05-08 05:11 35.43986 142.06755 25684 ft 532 kts 94°
2026-05-08 05:12 35.43946 142.11299 26082 ft 534 kts 94°
2026-05-08 05:12 35.43904 142.15860 26484 ft 536 kts 94°
2026-05-08 05:12 35.43860 142.20439 26840 ft 538 kts 94°
2026-05-08 05:12 35.43815 142.25044 27196 ft 541 kts 94°
2026-05-08 05:13 35.43769 142.29672 27527 ft 543 kts 94°
2026-05-08 05:13 35.43722 142.34305 27921 ft 544 kts 94°
2026-05-08 05:13 35.43674 142.38953 28259 ft 546 kts 94°
2026-05-08 05:13 35.43623 142.43617 28554 ft 549 kts 95°
2026-05-08 05:14 35.43570 142.48298 28824 ft 551 kts 95°
2026-05-08 05:14 35.43516 142.53005 29148 ft 552 kts 95°
2026-05-08 05:14 35.43459 142.57710 29589 ft 551 kts 95°
2026-05-08 05:14 35.43401 142.62400 30033 ft 549 kts 95°
2026-05-08 05:15 35.43342 142.67029 30416 ft 548 kts 95°
2026-05-08 05:15 35.43280 142.71694 30753 ft 547 kts 95°
2026-05-08 05:15 35.43216 142.76367 31068 ft 547 kts 95°
2026-05-08 05:15 35.43151 142.81033 31335 ft 548 kts 95°
2026-05-08 05:16 35.43083 142.85704 31638 ft 548 kts 95°
2026-05-08 05:16 35.43015 142.90372 31980 ft 547 kts 95°
2026-05-08 05:16 35.42945 142.95039 32314 ft 546 kts 95°
2026-05-08 05:16 35.42873 142.99690 32622 ft 545 kts 95°
2026-05-08 05:17 35.42799 143.04349 32779 ft 548 kts 95°
2026-05-08 05:17 35.42649 143.13597 32799 ft 534 kts 95°
2026-05-08 05:18 35.42494 143.22646 32822 ft 529 kts 95°
2026-05-08 05:18 35.43113 143.31591 32823 ft 533 kts 72°
2026-05-08 05:18 35.44574 143.35703 32842 ft 534 kts 59°
2026-05-08 05:19 35.46745 143.39388 32827 ft 531 kts 44°
2026-05-08 05:19 35.51954 143.45774 32836 ft 531 kts 42°
2026-05-08 05:20 35.57174 143.52232 32843 ft 534 kts 43°
2026-05-08 05:20 35.62353 143.58804 32833 ft 536 kts 44°
2026-05-08 05:21 35.67522 143.65432 32827 ft 537 kts 44°
2026-05-08 05:21 35.72684 143.72062 32827 ft 535 kts 44°
2026-05-08 05:22 35.77832 143.78675 32826 ft 534 kts 44°
2026-05-08 05:22 35.82969 143.85282 32832 ft 534 kts 44°
2026-05-08 05:23 35.88068 143.91855 32824 ft 533 kts 44°
2026-05-08 05:23 35.93221 143.98512 32828 ft 533 kts 44°
2026-05-08 05:24 35.98335 144.05134 32831 ft 533 kts 44°
2026-05-08 05:24 36.03423 144.11732 32829 ft 533 kts 44°
2026-05-08 05:25 36.08532 144.18381 32822 ft 534 kts 44°
2026-05-08 05:25 36.13650 144.25060 32824 ft 535 kts 44°
2026-05-08 05:26 36.18770 144.31756 32831 ft 536 kts 44°
2026-05-08 05:26 36.23891 144.38465 32828 ft 536 kts 44°
2026-05-08 05:27 36.29008 144.45183 32817 ft 536 kts 44°
2026-05-08 05:27 36.34123 144.51912 32817 ft 535 kts 44°
2026-05-08 05:28 36.39227 144.58640 32812 ft 535 kts 45°
2026-05-08 05:28 36.44295 144.65335 32818 ft 534 kts 45°
2026-05-08 05:29 36.49382 144.72068 32822 ft 534 kts 45°
2026-05-08 05:29 36.54456 144.78795 32830 ft 533 kts 45°
2026-05-08 05:30 36.59526 144.85535 32813 ft 533 kts 45°
2026-05-08 05:30 36.63728 144.91131 32815 ft 532 kts 45°
2026-05-08 05:31 36.68781 144.97872 32824 ft 532 kts 45°
2026-05-08 05:31 36.73832 145.04624 32820 ft 531 kts 45°
2026-05-08 05:32 36.78868 145.11370 32809 ft 531 kts 45°
2026-05-08 05:32 36.84705 145.19208 32809 ft 530 kts 45°
2026-05-08 05:33 36.88905 145.24859 32820 ft 530 kts 45°
2026-05-08 05:33 36.93882 145.31567 32818 ft 530 kts 45°
2026-05-08 05:34 36.98895 145.38339 32807 ft 530 kts 45°
2026-05-08 05:34 37.03902 145.45118 32809 ft 530 kts 45°
2026-05-08 05:35 37.08912 145.51914 32808 ft 530 kts 45°
2026-05-08 05:35 37.13911 145.58709 32810 ft 530 kts 45°
2026-05-08 05:36 37.18510 145.65938 32795 ft 532 kts 59°
2026-05-08 05:36 37.21632 145.74325 32811 ft 531 kts 74°
2026-05-08 05:37 37.23633 145.83224 32816 ft 530 kts 76°
2026-05-08 05:37 37.25570 145.92087 32810 ft 530 kts 76°
2026-05-08 05:38 37.27567 146.01010 32814 ft 531 kts 76°
2026-05-08 05:38 37.29590 146.09929 32820 ft 530 kts 76°
2026-05-08 05:39 37.31606 146.18816 32810 ft 529 kts 76°
2026-05-08 05:39 37.33608 146.27692 32815 ft 527 kts 76°
2026-05-08 05:40 37.35594 146.36542 32823 ft 525 kts 76°
2026-05-08 05:40 37.37568 146.45376 32817 ft 524 kts 76°
2026-05-08 05:41 37.39528 146.54181 32819 ft 522 kts 76°
2026-05-08 05:41 37.41477 146.62969 32824 ft 522 kts 76°
2026-05-08 05:42 37.43420 146.71767 32844 ft 522 kts 76°
2026-05-08 05:42 37.45348 146.80529 32828 ft 523 kts 76°
2026-05-08 05:43 37.47284 146.89363 32851 ft 523 kts 76°
2026-05-08 05:43 37.49216 146.98213 32821 ft 524 kts 76°
2026-05-08 05:44 37.51145 147.07078 32837 ft 525 kts 76°
2026-05-08 05:44 37.53065 147.15943 32834 ft 525 kts 77°
2026-05-08 05:45 37.54979 147.24813 32833 ft 525 kts 77°
2026-05-08 05:45 37.56886 147.33687 32838 ft 524 kts 77°
2026-05-08 05:46 37.58785 147.42558 32845 ft 524 kts 77°
2026-05-08 05:46 37.60673 147.51416 32848 ft 523 kts 77°
2026-05-08 05:47 37.62553 147.60269 32843 ft 522 kts 77°
2026-05-08 05:47 37.64424 147.69113 32835 ft 521 kts 77°
2026-05-08 05:48 37.66275 147.77903 32845 ft 521 kts 77°
2026-05-08 05:48 37.68129 147.86740 32848 ft 521 kts 77°
2026-05-08 05:49 37.69977 147.95587 32856 ft 522 kts 77°
2026-05-08 05:49 37.71823 148.04459 32862 ft 523 kts 77°
2026-05-08 05:50 37.73665 148.13347 32858 ft 524 kts 77°
2026-05-08 05:50 37.75508 148.22279 32858 ft 525 kts 77°
2026-05-08 05:51 37.77343 148.31205 32854 ft 525 kts 77°
2026-05-08 05:51 37.79174 148.40150 32858 ft 525 kts 77°
2026-05-08 05:52 37.80985 148.49036 32861 ft 525 kts 77°
2026-05-08 05:52 37.82801 148.57982 32855 ft 525 kts 77°
2026-05-08 05:53 37.84609 148.66929 32867 ft 524 kts 77°
2026-05-08 05:53 37.86408 148.75870 32868 ft 524 kts 77°
2026-05-08 05:54 37.88197 148.84794 32866 ft 522 kts 77°
2026-05-08 05:54 37.89975 148.93710 32873 ft 522 kts 77°
2026-05-08 05:55 37.91745 149.02616 32872 ft 521 kts 77°
2026-05-08 05:55 37.93504 149.11511 32883 ft 520 kts 77°
2026-05-08 05:56 37.95255 149.20395 32871 ft 519 kts 77°
2026-05-08 05:56 37.96987 149.29229 32880 ft 519 kts 77°
2026-05-08 05:57 37.98721 149.38104 32884 ft 518 kts 78°
2026-05-08 05:57 38.00448 149.46986 32881 ft 519 kts 78°
2026-05-08 05:58 38.02167 149.55864 32887 ft 519 kts 78°
2026-05-08 05:58 38.03882 149.64765 32869 ft 519 kts 77°
2026-05-08 05:59 38.05591 149.73668 32883 ft 519 kts 78°
2026-05-08 05:59 38.07291 149.82566 32889 ft 519 kts 78°
2026-05-08 06:00 38.08974 149.91408 32885 ft 519 kts 78°
2026-05-08 06:00 38.10774 150.00287 32885 ft 519 kts 73°
2026-05-08 06:01 38.13508 150.08767 32904 ft 520 kts 66°
2026-05-08 06:01 38.16467 150.17152 32888 ft 519 kts 66°
2026-05-08 06:02 38.19386 150.25528 32894 ft 518 kts 66°
2026-05-08 06:02 38.22260 150.33906 32889 ft 516 kts 66°
2026-05-08 06:03 38.25113 150.42283 32901 ft 516 kts 67°
2026-05-08 06:03 38.27958 150.50658 32905 ft 514 kts 66°
2026-05-08 06:04 38.30795 150.59016 32894 ft 514 kts 67°
2026-05-08 06:04 38.33619 150.67366 32886 ft 513 kts 67°
2026-05-08 06:05 38.36419 150.75671 32895 ft 513 kts 66°
2026-05-08 06:05 38.39234 150.84041 32900 ft 514 kts 67°
2026-05-08 06:06 38.42043 150.92420 32889 ft 514 kts 67°
2026-05-08 06:06 38.44845 151.00798 32892 ft 514 kts 67°
2026-05-08 06:07 38.47646 151.09199 32897 ft 514 kts 67°
2026-05-08 06:07 38.50434 151.17587 32890 ft 513 kts 67°
2026-05-08 06:08 38.53195 151.25919 32887 ft 512 kts 67°
2026-05-08 06:08 38.55982 151.34351 32902 ft 511 kts 67°
2026-05-08 06:09 38.58719 151.42659 32901 ft 510 kts 67°
2026-05-08 06:09 38.61470 151.51030 32895 ft 509 kts 67°
2026-05-08 06:10 38.64207 151.59387 32895 ft 508 kts 67°
2026-05-08 06:10 38.66930 151.67721 32898 ft 507 kts 67°
2026-05-08 06:11 38.69640 151.76044 32891 ft 507 kts 67°
2026-05-08 06:11 38.72329 151.84325 32890 ft 506 kts 67°
2026-05-08 06:12 38.75025 151.92654 32894 ft 506 kts 67°
2026-05-08 06:12 38.77715 152.00986 32902 ft 505 kts 67°
2026-05-08 06:13 38.80394 152.09308 32884 ft 504 kts 67°
2026-05-08 06:13 38.83061 152.17622 32893 ft 503 kts 67°
2026-05-08 06:14 38.85720 152.25929 32898 ft 503 kts 67°
2026-05-08 06:14 38.88368 152.34232 32893 ft 502 kts 68°
2026-05-08 06:15 38.91008 152.42531 32898 ft 502 kts 68°
2026-05-08 06:15 38.93626 152.50786 32898 ft 503 kts 68°
2026-05-08 06:16 38.96258 152.59109 32904 ft 502 kts 68°
2026-05-08 06:16 38.98881 152.67432 32900 ft 502 kts 68°
2026-05-08 06:17 39.02801 152.79915 32899 ft 502 kts 68°
2026-05-08 06:17 39.05407 152.88243 32897 ft 501 kts 68°
2026-05-08 06:18 39.08001 152.96559 32904 ft 501 kts 68°
2026-05-08 06:18 39.10590 153.04882 32902 ft 500 kts 68°
2026-05-08 06:19 39.13170 153.13202 32897 ft 500 kts 68°
2026-05-08 06:19 39.15312 153.20131 32898 ft 500 kts 68°
2026-05-08 06:20 39.18299 153.29819 32901 ft 500 kts 68°
2026-05-08 06:20 39.20863 153.38165 32895 ft 500 kts 68°
2026-05-08 06:21 39.23004 153.45151 32902 ft 500 kts 68°
2026-05-08 06:21 39.25544 153.53465 32895 ft 501 kts 68°
2026-05-08 06:22 39.28092 153.61829 32898 ft 501 kts 68°
2026-05-08 06:22 39.30633 153.70198 32901 ft 501 kts 68°
2026-05-08 06:23 39.33171 153.78583 32910 ft 502 kts 69°
2026-05-08 06:23 39.35710 153.86994 32905 ft 502 kts 69°
2026-05-08 06:24 39.38246 153.95423 32905 ft 503 kts 69°
2026-05-08 06:24 39.40775 154.03857 32892 ft 503 kts 69°
2026-05-08 06:25 39.43299 154.12300 32913 ft 503 kts 69°
2026-05-08 06:25 39.45820 154.20758 32912 ft 504 kts 69°
2026-05-08 06:26 39.48339 154.29236 32913 ft 504 kts 69°
2026-05-08 06:26 39.50830 154.37649 32894 ft 504 kts 69°
2026-05-08 06:27 39.53336 154.46137 32914 ft 504 kts 69°
2026-05-08 06:27 39.55837 154.54636 32908 ft 505 kts 70°
2026-05-08 06:28 39.58335 154.63152 32913 ft 506 kts 70°
2026-05-08 06:28 39.60831 154.71690 32889 ft 507 kts 70°
2026-05-08 06:29 39.63322 154.80236 32916 ft 507 kts 70°
2026-05-08 06:29 39.65815 154.88815 32912 ft 508 kts 70°
2026-05-08 06:30 39.68301 154.97401 32920 ft 508 kts 70°
2026-05-08 06:30 39.70785 155.06008 32910 ft 509 kts 70°
2026-05-08 06:31 39.73262 155.14620 32922 ft 509 kts 70°
2026-05-08 06:31 39.75738 155.23254 32915 ft 510 kts 70°
2026-05-08 06:32 39.78192 155.31841 32915 ft 510 kts 70°
2026-05-08 06:32 39.80656 155.40490 32921 ft 510 kts 71°
2026-05-08 06:33 39.83114 155.49149 32924 ft 510 kts 71°
2026-05-08 06:33 39.85562 155.57802 32930 ft 510 kts 71°
2026-05-08 06:34 39.88006 155.66469 32925 ft 510 kts 71°
2026-05-08 06:34 39.90444 155.75143 32933 ft 510 kts 71°
2026-05-08 06:35 39.92878 155.83834 32920 ft 510 kts 71°
2026-05-08 06:35 39.95305 155.92524 32925 ft 509 kts 71°
2026-05-08 06:36 39.97723 156.01211 32926 ft 510 kts 71°
2026-05-08 06:36 40.00120 156.09860 32940 ft 511 kts 71°
2026-05-08 06:37 40.02533 156.18593 32936 ft 512 kts 71°
2026-05-08 06:37 40.04947 156.27359 32937 ft 514 kts 71°
2026-05-08 06:38 40.07363 156.36163 32938 ft 516 kts 71°
2026-05-08 06:38 40.09779 156.44995 32946 ft 517 kts 71°
2026-05-08 06:39 40.12195 156.53862 32946 ft 518 kts 71°
2026-05-08 06:39 40.14607 156.62741 32933 ft 519 kts 71°
2026-05-08 06:40 40.17016 156.71642 32945 ft 519 kts 71°
2026-05-08 06:40 40.19416 156.80542 32951 ft 519 kts 71°
2026-05-08 06:41 40.21795 156.89397 32953 ft 519 kts 71°
2026-05-08 06:41 40.24183 156.98312 32953 ft 519 kts 71°
2026-05-08 06:42 40.26564 157.07239 32957 ft 519 kts 71°
2026-05-08 06:42 40.28941 157.16180 32963 ft 519 kts 71°
2026-05-08 06:43 40.31309 157.25120 32973 ft 520 kts 71°
2026-05-08 06:43 40.33676 157.34085 32965 ft 521 kts 71°
2026-05-08 06:44 40.36038 157.43068 32978 ft 522 kts 71°
2026-05-08 06:44 40.38399 157.52079 32973 ft 522 kts 71°
2026-05-08 06:45 40.40740 157.61046 32970 ft 523 kts 71°
2026-05-08 06:45 40.43089 157.70077 32976 ft 523 kts 71°
2026-05-08 06:46 40.45434 157.79128 32974 ft 524 kts 71°
2026-05-08 06:46 40.47777 157.88202 32982 ft 524 kts 71°
2026-05-08 06:47 40.50111 157.97276 32988 ft 524 kts 71°
2026-05-08 06:47 40.52438 158.06358 32983 ft 524 kts 71°
2026-05-08 06:48 40.54758 158.15443 32982 ft 524 kts 71°
2026-05-08 06:48 40.57073 158.24543 32991 ft 524 kts 72°
2026-05-08 06:49 40.59359 158.33566 32992 ft 524 kts 72°
2026-05-08 06:49 40.61656 158.42666 32992 ft 523 kts 72°
2026-05-08 06:50 40.63943 158.51761 32994 ft 523 kts 72°
2026-05-08 06:50 40.66224 158.60869 33004 ft 523 kts 72°
2026-05-08 06:51 40.68498 158.69979 32995 ft 523 kts 72°
2026-05-08 06:51 40.70763 158.79091 33000 ft 523 kts 72°
2026-05-08 06:52 40.73025 158.88222 33001 ft 523 kts 72°
2026-05-08 06:52 40.75276 158.97347 33001 ft 524 kts 72°
2026-05-08 06:53 40.77522 159.06489 33006 ft 524 kts 72°
2026-05-08 06:53 40.79764 159.15650 33019 ft 524 kts 72°
2026-05-08 06:54 40.81999 159.24815 33011 ft 525 kts 72°
2026-05-08 06:54 40.84219 159.33956 33021 ft 526 kts 72°
2026-05-08 06:55 40.86449 159.43174 33022 ft 527 kts 72°
2026-05-08 06:55 40.88672 159.52402 33019 ft 527 kts 72°
2026-05-08 06:56 40.90892 159.61648 33023 ft 528 kts 72°
2026-05-08 06:56 40.93105 159.70909 33027 ft 528 kts 72°
2026-05-08 06:57 40.95314 159.80186 33035 ft 529 kts 72°
2026-05-08 06:57 40.97515 159.89471 33034 ft 529 kts 72°
2026-05-08 06:58 40.99712 159.98769 33033 ft 529 kts 72°
2026-05-08 06:58 41.01965 160.08052 33033 ft 530 kts 71°
2026-05-08 06:59 41.04283 160.17258 33039 ft 530 kts 71°
2026-05-08 06:59 41.06612 160.26531 33036 ft 531 kts 71°
2026-05-08 07:00 41.08924 160.35846 33042 ft 532 kts 71°
2026-05-08 07:00 41.11225 160.45179 33040 ft 533 kts 71°
2026-05-08 07:01 41.13516 160.54521 33047 ft 533 kts 71°
2026-05-08 07:01 41.15808 160.63895 33041 ft 534 kts 71°
2026-05-08 07:02 41.18091 160.73277 33058 ft 535 kts 71°
2026-05-08 07:02 41.20378 160.82710 33050 ft 536 kts 71°
2026-05-08 07:03 41.22658 160.92141 33044 ft 537 kts 70°
2026-05-08 07:03 41.24936 161.01612 33050 ft 538 kts 70°
2026-05-08 07:04 41.27196 161.11043 33053 ft 539 kts 71°
2026-05-08 07:04 41.29463 161.20548 33054 ft 539 kts 71°
2026-05-08 07:05 41.31718 161.30040 33051 ft 538 kts 71°
2026-05-08 07:05 41.33966 161.39543 33048 ft 537 kts 71°
2026-05-08 07:06 41.36197 161.49011 33054 ft 535 kts 71°
2026-05-08 07:06 41.38413 161.58455 33060 ft 534 kts 71°
2026-05-08 07:07 41.40616 161.67884 33053 ft 533 kts 71°
2026-05-08 07:07 41.42806 161.77293 33056 ft 531 kts 71°
2026-05-08 07:08 41.44985 161.86694 33061 ft 531 kts 71°
2026-05-08 07:08 41.46791 161.94519 33061 ft 531 kts 71°
2026-05-08 07:09 41.49306 162.05458 33063 ft 531 kts 71°
2026-05-08 07:09 41.51466 162.14898 33067 ft 532 kts 71°
2026-05-08 07:10 41.53270 162.22810 33067 ft 533 kts 71°
2026-05-08 07:10 41.55771 162.33827 33067 ft 534 kts 71°
2026-05-08 07:11 41.57552 162.41710 33071 ft 534 kts 71°
2026-05-08 07:11 41.59688 162.51200 33068 ft 534 kts 71°
2026-05-08 07:12 41.61817 162.60703 33073 ft 533 kts 71°
2026-05-08 07:12 41.63935 162.70194 33070 ft 533 kts 71°
2026-05-08 07:13 41.66047 162.79697 33073 ft 532 kts 71°
2026-05-08 07:13 41.68148 162.89194 33073 ft 532 kts 71°
2026-05-08 07:14 41.70238 162.98679 33084 ft 531 kts 71°
2026-05-08 07:14 41.72318 163.08164 33075 ft 531 kts 71°
2026-05-08 07:15 41.74389 163.17652 33075 ft 531 kts 71°
2026-05-08 07:15 41.76437 163.27073 33076 ft 530 kts 71°
2026-05-08 07:16 41.78493 163.36577 33078 ft 530 kts 71°
2026-05-08 07:16 41.80543 163.46088 33075 ft 531 kts 71°
2026-05-08 07:17 41.82584 163.55602 33080 ft 531 kts 71°
2026-05-08 07:17 41.84616 163.65118 33080 ft 531 kts 71°
2026-05-08 07:18 41.86642 163.74653 33092 ft 532 kts 70°
2026-05-08 07:18 41.88649 163.84136 33088 ft 532 kts 70°
2026-05-08 07:19 41.90665 163.93703 33082 ft 532 kts 70°
2026-05-08 07:19 41.92672 164.03277 33089 ft 532 kts 70°
2026-05-08 07:20 41.94670 164.12852 33085 ft 532 kts 70°
2026-05-08 07:20 41.96659 164.22423 33083 ft 532 kts 70°
2026-05-08 07:21 41.98638 164.31995 33084 ft 532 kts 70°
2026-05-08 07:21 42.00610 164.41575 33093 ft 531 kts 70°
2026-05-08 07:22 42.02572 164.51152 33086 ft 531 kts 70°
2026-05-08 07:22 42.04527 164.60734 33087 ft 531 kts 70°
2026-05-08 07:23 42.06474 164.70326 33087 ft 530 kts 70°
2026-05-08 07:23 42.08397 164.79848 33093 ft 531 kts 70°
2026-05-08 07:24 42.10327 164.89445 33089 ft 531 kts 70°
2026-05-08 07:24 42.12252 164.99062 33088 ft 532 kts 70°
2026-05-08 07:25 42.14169 165.08690 33099 ft 532 kts 70°
2026-05-08 07:26 42.17034 165.23161 33095 ft 533 kts 70°
2026-05-08 07:26 42.18937 165.32830 33094 ft 533 kts 70°
2026-05-08 07:27 42.20831 165.42506 33094 ft 534 kts 70°
2026-05-08 07:27 42.22717 165.52184 33095 ft 534 kts 70°
2026-05-08 07:28 42.24596 165.61880 33089 ft 534 kts 70°
2026-05-08 07:28 42.26466 165.71572 33092 ft 533 kts 71°
2026-05-08 07:29 42.28328 165.81272 33103 ft 533 kts 70°
2026-05-08 07:29 42.30184 165.90985 33095 ft 534 kts 71°
2026-05-08 07:30 42.32019 166.00641 33098 ft 534 kts 71°
2026-05-08 07:30 42.33857 166.10360 33099 ft 534 kts 71°
2026-05-08 07:31 42.35690 166.20102 33102 ft 534 kts 71°
2026-05-08 07:31 42.37514 166.29842 33098 ft 534 kts 71°
2026-05-08 07:32 42.39328 166.39584 33101 ft 534 kts 71°
2026-05-08 07:32 42.41134 166.49333 33102 ft 534 kts 71°
2026-05-08 07:33 42.42934 166.59098 33094 ft 534 kts 71°
2026-05-08 07:33 42.44724 166.68861 33108 ft 534 kts 71°
2026-05-08 07:34 42.46507 166.78634 33094 ft 534 kts 71°
2026-05-08 07:34 42.48279 166.88395 33116 ft 534 kts 71°
2026-05-08 07:35 42.50031 166.98099 33098 ft 533 kts 71°
2026-05-08 07:35 42.51784 167.07860 33101 ft 533 kts 71°
2026-05-08 07:36 42.53530 167.17637 33100 ft 533 kts 71°
2026-05-08 07:36 42.55264 167.27396 33108 ft 532 kts 71°
2026-05-08 07:37 42.56988 167.37150 33097 ft 532 kts 71°
2026-05-08 07:37 42.58703 167.46908 33100 ft 531 kts 72°
2026-05-08 07:38 42.60409 167.56661 33095 ft 531 kts 72°
2026-05-08 07:38 42.62105 167.66415 33107 ft 531 kts 72°
2026-05-08 07:39 42.63793 167.76171 33095 ft 531 kts 72°
2026-05-08 07:39 42.65470 167.85923 33099 ft 530 kts 72°
2026-05-08 07:40 42.67139 167.95679 33098 ft 530 kts 72°
2026-05-08 07:40 42.68799 168.05436 33106 ft 530 kts 72°
2026-05-08 07:41 42.70452 168.15206 33099 ft 530 kts 72°
2026-05-08 07:41 42.72096 168.24973 33101 ft 530 kts 72°
2026-05-08 07:42 42.73719 168.34676 33105 ft 529 kts 72°
2026-05-08 07:42 42.75346 168.44449 33103 ft 529 kts 72°
2026-05-08 07:43 42.76961 168.54216 33100 ft 529 kts 72°
2026-05-08 07:43 42.78569 168.63986 33101 ft 529 kts 72°
2026-05-08 07:44 42.80171 168.73777 33114 ft 529 kts 72°
2026-05-08 07:44 42.81762 168.83559 33100 ft 529 kts 72°
2026-05-08 07:45 42.83344 168.93344 33100 ft 529 kts 72°
2026-05-08 07:45 42.84917 169.03130 33101 ft 528 kts 72°
2026-05-08 07:46 42.86480 169.12908 33103 ft 528 kts 72°
2026-05-08 07:46 42.88036 169.22698 33104 ft 528 kts 72°
2026-05-08 07:47 42.89574 169.32430 33102 ft 528 kts 73°
2026-05-08 07:47 42.91115 169.42246 33104 ft 529 kts 73°
2026-05-08 07:48 42.92646 169.52049 33103 ft 529 kts 73°
2026-05-08 07:48 42.94169 169.61864 33102 ft 529 kts 73°
2026-05-08 07:49 42.95685 169.71692 33095 ft 529 kts 73°
2026-05-08 07:49 42.97192 169.81522 33120 ft 529 kts 73°
2026-05-08 07:50 42.98691 169.91354 33121 ft 529 kts 73°
2026-05-08 07:50 43.00081 170.01238 33106 ft 533 kts 78°
2026-05-08 07:51 43.00602 170.11387 33105 ft 536 kts 83°
2026-05-08 07:51 43.00959 170.21560 33103 ft 536 kts 83°
2026-05-08 07:52 43.01336 170.31737 33108 ft 536 kts 83°
2026-05-08 07:52 43.01739 170.41904 33108 ft 535 kts 83°
2026-05-08 07:53 43.02146 170.52067 33109 ft 535 kts 83°
2026-05-08 07:53 43.02540 170.62165 33117 ft 536 kts 83°
2026-05-08 07:54 43.02925 170.72334 33116 ft 536 kts 83°
2026-05-08 07:54 43.03300 170.82505 33117 ft 536 kts 83°
2026-05-08 07:55 43.03665 170.92683 33123 ft 536 kts 83°
2026-05-08 07:55 43.04022 171.02864 33115 ft 536 kts 83°
2026-05-08 07:56 43.04371 171.13055 33121 ft 536 kts 83°
2026-05-08 07:56 43.04654 171.21534 33106 ft 536 kts 83°
2026-05-08 07:57 43.04986 171.31729 33127 ft 537 kts 83°
2026-05-08 07:57 43.05308 171.41922 33119 ft 537 kts 83°
2026-05-08 07:58 43.05623 171.52142 33117 ft 537 kts 83°
2026-05-08 07:58 43.05928 171.62350 33124 ft 538 kts 83°
2026-05-08 07:59 43.06224 171.72570 33123 ft 538 kts 83°
2026-05-08 07:59 43.06512 171.82801 33117 ft 538 kts 83°
2026-05-08 08:00 43.06790 171.93033 33122 ft 538 kts 83°
2026-05-08 08:00 43.07059 172.03255 33140 ft 538 kts 83°
2026-05-08 08:01 43.07319 172.13490 33134 ft 539 kts 83°
2026-05-08 08:01 43.07570 172.23745 33126 ft 539 kts 83°
2026-05-08 08:02 43.07811 172.33929 33124 ft 539 kts 83°
2026-05-08 08:02 43.08044 172.44186 33139 ft 540 kts 83°
2026-05-08 08:03 43.08269 172.54454 33133 ft 540 kts 83°
2026-05-08 08:03 43.08484 172.64723 33128 ft 540 kts 84°
2026-05-08 08:04 43.08690 172.75005 33123 ft 540 kts 84°
2026-05-08 08:04 43.08887 172.85285 33132 ft 540 kts 84°
2026-05-08 08:05 43.09074 172.95573 33134 ft 540 kts 84°
2026-05-08 08:05 43.09253 173.05852 33127 ft 540 kts 84°
2026-05-08 08:06 43.09421 173.16078 33143 ft 540 kts 84°
2026-05-08 08:06 43.09581 173.26361 33129 ft 541 kts 84°
2026-05-08 08:07 43.09733 173.36658 33137 ft 541 kts 84°
2026-05-08 08:07 43.09875 173.46955 33133 ft 541 kts 84°
2026-05-08 08:08 43.10007 173.57264 33155 ft 542 kts 84°
2026-05-08 08:08 43.10131 173.67577 33140 ft 543 kts 84°
2026-05-08 08:09 43.10246 173.77898 33129 ft 543 kts 84°
2026-05-08 08:09 43.10351 173.88247 33147 ft 543 kts 84°
2026-05-08 08:10 43.10447 173.98601 33134 ft 544 kts 84°
2026-05-08 08:10 43.10534 174.08959 33140 ft 544 kts 84°
2026-05-08 08:11 43.10611 174.19266 33143 ft 545 kts 84°
2026-05-08 08:11 43.10679 174.29635 33152 ft 545 kts 84°
2026-05-08 08:12 43.10738 174.40021 33139 ft 545 kts 84°
2026-05-08 08:12 43.10787 174.50397 33142 ft 545 kts 84°
2026-05-08 08:13 43.10827 174.60767 33143 ft 545 kts 84°
2026-05-08 08:13 43.10858 174.71132 33161 ft 545 kts 84°
2026-05-08 08:14 43.10880 174.81503 33144 ft 545 kts 84°
2026-05-08 08:14 43.10892 174.91885 33146 ft 544 kts 84°
2026-05-08 08:15 43.10894 175.02177 33147 ft 544 kts 84°
2026-05-08 08:15 43.10887 175.12543 33156 ft 544 kts 84°
2026-05-08 08:16 43.10871 175.22900 33143 ft 544 kts 84°
2026-05-08 08:16 43.10846 175.33261 33147 ft 544 kts 84°
2026-05-08 08:17 43.10811 175.43601 33172 ft 543 kts 84°
2026-05-08 08:17 43.10768 175.53952 33151 ft 544 kts 84°
2026-05-08 08:18 43.10714 175.64304 33146 ft 543 kts 84°
2026-05-08 08:18 43.10652 175.74585 33155 ft 543 kts 84°
2026-05-08 08:19 43.10580 175.84927 33166 ft 543 kts 84°
2026-05-08 08:19 43.10500 175.95259 33152 ft 543 kts 84°
2026-05-08 08:20 43.10409 176.05598 33155 ft 543 kts 84°
2026-05-08 08:20 43.10309 176.15925 33154 ft 543 kts 84°
2026-05-08 08:21 43.10200 176.26255 33159 ft 543 kts 84°
2026-05-08 08:21 43.10082 176.36587 33153 ft 542 kts 84°
2026-05-08 08:22 43.09955 176.46900 33159 ft 542 kts 84°
2026-05-08 08:22 43.09818 176.57212 33152 ft 542 kts 84°
2026-05-08 08:23 43.09673 176.67461 33156 ft 542 kts 84°
2026-05-08 08:23 43.09519 176.77757 33159 ft 542 kts 84°
2026-05-08 08:24 43.09355 176.88076 33155 ft 542 kts 85°
2026-05-08 08:24 43.09181 176.98392 33176 ft 542 kts 85°
2026-05-08 08:25 43.08998 177.08724 33162 ft 543 kts 85°
2026-05-08 08:25 43.08806 177.19046 33155 ft 543 kts 85°